DLH492 EDDF-CYVR

Flight info

Callsign DLH492
Flight time N/A
Altitude 36000
Route MARUN8M/25C MARUN Y152 ARPEG Z850 ABILU DCT ATPAQ DCT OMIMA DCT ATNAK DCT GUNPA DCT 65N010W 6730N02000W 70N030W 72N040W 73N060W DCT MEDPA DCT 71N080W 6830N09000W 65N100W 60N110W 55N116W DCT MERYT DCT BOOTH CANUC6 CYVR/13
Aircraft A343/H-V/N

Departure

Time 2026-05-06 13:37
Airport Frankfurt Main Airport (EDDF)

Arrival

Time N/A
Airport Vancouver International Airport (CYVR)
Time Latitude Longitude Altitude Speed Heading
2026-05-06 13:03 50.04751 8.57127 360 ft 0 kts 120°
2026-05-06 13:26 50.04752 8.57125 360 ft 2 kts 120°
2026-05-06 13:26 50.04765 8.57090 368 ft 4 kts 123°
2026-05-06 13:26 50.04780 8.57057 368 ft 4 kts 138°
2026-05-06 13:26 50.04800 8.57040 366 ft 4 kts 196°
2026-05-06 13:27 50.04797 8.57036 366 ft 4 kts 204°
2026-05-06 13:27 50.04778 8.57023 368 ft 0 kts 205°
2026-05-06 13:30 50.04775 8.57020 368 ft 1 kts 205°
2026-05-06 13:30 50.04763 8.57012 368 ft 3 kts 205°
2026-05-06 13:30 50.04728 8.56987 368 ft 8 kts 205°
2026-05-06 13:30 50.04666 8.56943 367 ft 10 kts 204°
2026-05-06 13:31 50.04598 8.56908 366 ft 10 kts 194°
2026-05-06 13:31 50.04541 8.56886 363 ft 8 kts 193°
2026-05-06 13:31 50.04468 8.56862 363 ft 13 kts 190°
2026-05-06 13:31 50.04379 8.56836 364 ft 13 kts 191°
2026-05-06 13:32 50.04297 8.56819 365 ft 6 kts 173°
2026-05-06 13:32 50.04276 8.56862 370 ft 7 kts 103°
2026-05-06 13:32 50.04292 8.56969 370 ft 14 kts 70°
2026-05-06 13:32 50.04331 8.57132 372 ft 17 kts 69°
2026-05-06 13:33 50.04372 8.57302 372 ft 17 kts 69°
2026-05-06 13:33 50.04414 8.57475 371 ft 18 kts 69°
2026-05-06 13:33 50.04453 8.57646 372 ft 16 kts 70°
2026-05-06 13:33 50.04498 8.57832 371 ft 19 kts 69°
2026-05-06 13:34 50.04546 8.58031 373 ft 20 kts 70°
2026-05-06 13:34 50.04594 8.58234 376 ft 19 kts 69°
2026-05-06 13:34 50.04638 8.58415 374 ft 18 kts 69°
2026-05-06 13:34 50.04657 8.58528 378 ft 6 kts 93°
2026-05-06 13:35 50.04630 8.58569 374 ft 6 kts 151°
2026-05-06 13:35 50.04595 8.58592 377 ft 5 kts 157°
2026-05-06 13:35 50.04565 8.58611 377 ft 5 kts 157°
2026-05-06 13:35 50.04533 8.58632 378 ft 5 kts 157°
2026-05-06 13:36 50.04505 8.58629 379 ft 3 kts 207°
2026-05-06 13:36 50.04491 8.58601 376 ft 4 kts 239°
2026-05-06 13:36 50.04480 8.58559 378 ft 7 kts 249°
2026-05-06 13:36 50.04415 8.58286 373 ft 60 kts 249°
2026-05-06 13:37 50.04186 8.57327 375 ft 127 kts 249°
2026-05-06 13:37 50.03814 8.55785 477 ft 170 kts 249°
2026-05-06 13:37 50.03387 8.54015 1246 ft 178 kts 249°
2026-05-06 13:37 50.02922 8.52155 1982 ft 193 kts 245°
2026-05-06 13:38 50.01992 8.50718 2729 ft 189 kts 209°
2026-05-06 13:38 50.00769 8.49875 3313 ft 195 kts 203°
2026-05-06 13:38 49.99487 8.49105 3873 ft 198 kts 203°
2026-05-06 13:38 49.98175 8.48309 4188 ft 213 kts 203°
2026-05-06 13:39 49.96741 8.47425 4580 ft 223 kts 203°
2026-05-06 13:39 49.95244 8.46641 5056 ft 230 kts 198°
2026-05-06 13:39 49.93711 8.45930 5580 ft 235 kts 199°
2026-05-06 13:39 49.92233 8.44866 6145 ft 236 kts 218°
2026-05-06 13:40 49.91220 8.42878 6586 ft 240 kts 247°
2026-05-06 13:40 49.90987 8.40321 6756 ft 242 kts 274°
2026-05-06 13:40 49.91471 8.37792 6772 ft 249 kts 296°
2026-05-06 13:40 49.92627 8.35774 6786 ft 260 kts 323°
2026-05-06 13:41 49.94299 8.34437 6801 ft 278 kts 335°
2026-05-06 13:41 49.96183 8.33646 7021 ft 285 kts 348°
2026-05-06 13:41 49.98158 8.33272 7574 ft 287 kts 353°
2026-05-06 13:41 50.00142 8.33084 8185 ft 289 kts 356°
2026-05-06 13:42 50.02156 8.33005 8805 ft 291 kts 357°
2026-05-06 13:42 50.04192 8.32979 9443 ft 293 kts 357°
2026-05-06 13:42 50.06256 8.32967 9974 ft 298 kts 357°
2026-05-06 13:42 50.08373 8.32945 10247 ft 311 kts 358°
2026-05-06 13:43 50.10585 8.32910 10484 ft 324 kts 358°
2026-05-06 13:43 50.12885 8.32862 10728 ft 336 kts 357°
2026-05-06 13:43 50.15265 8.32805 10947 ft 348 kts 357°
2026-05-06 13:43 50.17717 8.32744 11256 ft 356 kts 357°
2026-05-06 13:44 50.20209 8.32681 11686 ft 360 kts 357°
2026-05-06 13:44 50.22726 8.32618 12106 ft 364 kts 357°
2026-05-06 13:44 50.25239 8.32556 12566 ft 367 kts 357°
2026-05-06 13:44 50.27802 8.32494 13053 ft 369 kts 357°
2026-05-06 13:45 50.30378 8.32395 13520 ft 371 kts 354°
2026-05-06 13:45 50.35514 8.31186 14346 ft 375 kts 347°
2026-05-06 13:45 50.38098 8.30400 14701 ft 379 kts 346°
2026-05-06 13:46 50.40687 8.29558 15100 ft 382 kts 346°
2026-05-06 13:46 50.43273 8.28694 15507 ft 385 kts 345°
2026-05-06 13:46 50.45898 8.27812 15905 ft 387 kts 345°
2026-05-06 13:46 50.48547 8.26923 16319 ft 390 kts 345°
2026-05-06 13:47 50.51210 8.26034 16732 ft 392 kts 345°
2026-05-06 13:47 50.53896 8.25142 17142 ft 395 kts 345°
2026-05-06 13:47 50.56606 8.24245 17585 ft 398 kts 345°
2026-05-06 13:47 50.59361 8.23334 18039 ft 401 kts 345°
2026-05-06 13:48 50.62073 8.22437 18464 ft 403 kts 345°
2026-05-06 13:48 50.64788 8.21537 18861 ft 405 kts 345°
2026-05-06 13:48 50.67561 8.20617 19274 ft 407 kts 345°
2026-05-06 13:48 50.70340 8.19692 19702 ft 409 kts 345°
2026-05-06 13:49 50.73129 8.18763 20112 ft 411 kts 345°
2026-05-06 13:49 50.75935 8.17826 20497 ft 413 kts 345°
2026-05-06 13:49 50.78769 8.16879 20910 ft 416 kts 345°
2026-05-06 13:49 50.81607 8.15930 21305 ft 418 kts 345°
2026-05-06 13:50 50.84456 8.14977 21697 ft 419 kts 345°
2026-05-06 13:50 50.87315 8.14019 22093 ft 421 kts 345°
2026-05-06 13:50 50.90202 8.13051 22476 ft 424 kts 345°
2026-05-06 13:50 50.93088 8.12083 22847 ft 426 kts 345°
2026-05-06 13:51 50.96002 8.11103 23235 ft 428 kts 345°
2026-05-06 13:51 50.98885 8.10132 23561 ft 430 kts 345°
2026-05-06 13:51 51.01822 8.09139 23856 ft 432 kts 345°
2026-05-06 13:51 51.04772 8.08141 24144 ft 434 kts 345°
2026-05-06 13:52 51.07738 8.07136 24509 ft 435 kts 346°
2026-05-06 13:52 51.10690 8.06140 24911 ft 435 kts 348°
2026-05-06 13:52 51.13660 8.05137 25258 ft 436 kts 347°
2026-05-06 13:52 51.16631 8.04129 25563 ft 438 kts 347°
2026-05-06 13:53 51.19610 8.03114 25894 ft 440 kts 348°
2026-05-06 13:53 51.22621 8.02086 26253 ft 442 kts 348°
2026-05-06 13:53 51.25640 8.01055 26562 ft 444 kts 347°
2026-05-06 13:53 51.28668 8.00020 26887 ft 445 kts 348°
2026-05-06 13:54 51.31711 7.98979 27164 ft 447 kts 347°
2026-05-06 13:54 51.34751 7.97938 27464 ft 448 kts 347°
2026-05-06 13:54 51.37812 7.96889 27788 ft 449 kts 347°
2026-05-06 13:54 51.40878 7.95837 28075 ft 451 kts 347°
2026-05-06 13:55 51.43918 7.94792 28314 ft 454 kts 347°
2026-05-06 13:55 51.47009 7.93728 28621 ft 455 kts 347°
2026-05-06 13:55 51.50105 7.92662 28932 ft 456 kts 347°
2026-05-06 13:55 51.53217 7.91588 29161 ft 458 kts 347°
2026-05-06 13:56 51.56343 7.90508 29505 ft 458 kts 347°
2026-05-06 13:56 51.59457 7.89429 29802 ft 457 kts 348°
2026-05-06 13:56 51.65668 7.87270 29827 ft 456 kts 348°
2026-05-06 13:57 51.71891 7.85104 29834 ft 457 kts 348°
2026-05-06 13:57 51.78076 7.82947 29828 ft 457 kts 348°
2026-05-06 13:58 51.84320 7.80765 29832 ft 459 kts 346°
2026-05-06 13:58 51.90583 7.78570 29843 ft 461 kts 348°
2026-05-06 13:59 51.96839 7.76369 30015 ft 464 kts 348°
2026-05-06 13:59 51.99997 7.75258 30245 ft 465 kts 348°
2026-05-06 13:59 52.03169 7.74140 30478 ft 467 kts 348°
2026-05-06 14:00 52.06364 7.73012 30581 ft 471 kts 348°
2026-05-06 14:00 52.09579 7.71872 30798 ft 472 kts 348°
2026-05-06 14:00 52.12754 7.70747 31042 ft 473 kts 347°
2026-05-06 14:00 52.15989 7.69600 31214 ft 475 kts 347°
2026-05-06 14:01 52.19227 7.68449 31425 ft 476 kts 347°
2026-05-06 14:01 52.22469 7.67294 31809 ft 474 kts 347°
2026-05-06 14:01 52.25683 7.66146 32092 ft 474 kts 347°
2026-05-06 14:01 52.28925 7.64986 32326 ft 476 kts 346°
2026-05-06 14:02 52.32155 7.63829 32608 ft 475 kts 346°
2026-05-06 14:02 52.35386 7.62670 32921 ft 474 kts 346°
2026-05-06 14:02 52.38576 7.61526 33162 ft 475 kts 346°
2026-05-06 14:02 52.41809 7.60364 33446 ft 475 kts 346°
2026-05-06 14:03 52.45035 7.59203 33713 ft 475 kts 346°
2026-05-06 14:03 52.48264 7.58040 33936 ft 475 kts 346°
2026-05-06 14:03 52.51498 7.56873 34142 ft 475 kts 346°
2026-05-06 14:03 52.54734 7.55703 34353 ft 475 kts 346°
2026-05-06 14:04 52.57954 7.54537 34579 ft 475 kts 346°
2026-05-06 14:04 52.61180 7.53367 34855 ft 475 kts 346°
2026-05-06 14:04 52.64415 7.52190 35096 ft 475 kts 346°
2026-05-06 14:04 52.67605 7.51030 35315 ft 475 kts 345°
2026-05-06 14:05 52.70868 7.49842 35525 ft 474 kts 345°
2026-05-06 14:05 52.74055 7.48681 35673 ft 475 kts 345°
2026-05-06 14:05 52.77294 7.47499 35830 ft 476 kts 345°
2026-05-06 14:05 52.80532 7.46314 35881 ft 479 kts 345°
2026-05-06 14:06 52.87036 7.43930 35873 ft 476 kts 345°
2026-05-06 14:06 52.93462 7.41568 35879 ft 476 kts 345°
2026-05-06 14:07 52.99930 7.39181 35877 ft 476 kts 345°
2026-05-06 14:07 53.06392 7.36789 35882 ft 476 kts 345°
2026-05-06 14:08 53.11820 7.34774 35890 ft 477 kts 345°
2026-05-06 14:08 53.18265 7.32376 35894 ft 477 kts 345°
2026-05-06 14:09 53.24734 7.29961 35904 ft 477 kts 345°
2026-05-06 14:09 53.31216 7.27534 35911 ft 477 kts 345°
2026-05-06 14:10 53.37702 7.25098 35913 ft 477 kts 345°
2026-05-06 14:10 53.44189 7.22653 35893 ft 477 kts 345°
2026-05-06 14:11 53.50653 7.20210 35892 ft 475 kts 345°
2026-05-06 14:11 53.57070 7.17778 35898 ft 475 kts 345°
2026-05-06 14:12 53.63536 7.15318 35906 ft 476 kts 345°
2026-05-06 14:12 53.69998 7.12852 35906 ft 476 kts 345°
2026-05-06 14:13 53.76461 7.10379 35914 ft 476 kts 345°
2026-05-06 14:13 53.82925 7.07897 35914 ft 476 kts 345°
2026-05-06 14:14 53.89377 7.05412 35919 ft 475 kts 345°
2026-05-06 14:14 53.95827 7.02919 35925 ft 475 kts 345°
2026-05-06 14:15 54.02249 7.00430 35922 ft 475 kts 345°
2026-05-06 14:15 54.08704 6.97920 35928 ft 476 kts 344°
2026-05-06 14:16 54.15166 6.95399 35936 ft 476 kts 344°
2026-05-06 14:16 54.21640 6.92865 35936 ft 476 kts 344°
2026-05-06 14:17 54.28096 6.90330 35944 ft 476 kts 344°
2026-05-06 14:17 54.34551 6.87788 35941 ft 476 kts 344°
2026-05-06 14:18 54.40977 6.85249 35944 ft 477 kts 344°
2026-05-06 14:18 54.47459 6.82679 35955 ft 477 kts 344°
2026-05-06 14:19 54.53931 6.80105 35952 ft 477 kts 344°
2026-05-06 14:19 54.60396 6.77526 35956 ft 477 kts 343°
2026-05-06 14:20 54.66833 6.74949 35960 ft 477 kts 343°
2026-05-06 14:20 54.73300 6.72351 35961 ft 477 kts 343°
2026-05-06 14:21 54.79767 6.69746 35966 ft 477 kts 343°
2026-05-06 14:21 54.86251 6.67125 35967 ft 477 kts 343°
2026-05-06 14:22 54.92720 6.64501 35969 ft 477 kts 343°
2026-05-06 14:22 54.99123 6.61777 35972 ft 475 kts 338°
2026-05-06 14:23 55.02220 6.59745 36087 ft 473 kts 334°
2026-05-06 14:23 55.05264 6.57534 36260 ft 472 kts 333°
2026-05-06 14:23 55.08273 6.55272 36563 ft 469 kts 332°
2026-05-06 14:23 55.11259 6.52984 36854 ft 467 kts 332°
2026-05-06 14:24 55.14194 6.50715 37019 ft 467 kts 332°
2026-05-06 14:24 55.17174 6.48404 37171 ft 468 kts 332°
2026-05-06 14:24 55.20154 6.46092 37333 ft 468 kts 332°
2026-05-06 14:24 55.23138 6.43779 37494 ft 468 kts 332°
2026-05-06 14:25 55.26122 6.41466 37649 ft 468 kts 332°
2026-05-06 14:25 55.29108 6.39152 37807 ft 468 kts 332°
2026-05-06 14:25 55.32098 6.36831 37982 ft 469 kts 332°
2026-05-06 14:25 55.35051 6.34536 37997 ft 472 kts 332°
2026-05-06 14:26 55.41049 6.29864 37994 ft 470 kts 332°
2026-05-06 14:26 55.47017 6.25201 37979 ft 469 kts 332°
2026-05-06 14:27 55.52974 6.20528 38007 ft 469 kts 332°
2026-05-06 14:27 55.58933 6.15837 38003 ft 469 kts 332°
2026-05-06 14:28 55.64896 6.11128 38009 ft 468 kts 331°
2026-05-06 14:28 55.70808 6.06445 38001 ft 468 kts 331°
2026-05-06 14:29 55.76758 6.01715 38007 ft 468 kts 331°
2026-05-06 14:29 55.82702 5.96973 38007 ft 468 kts 331°
2026-05-06 14:30 55.88637 5.92223 38012 ft 468 kts 331°
2026-05-06 14:30 55.94573 5.87456 38018 ft 467 kts 331°
2026-05-06 14:31 56.00510 5.82673 38018 ft 467 kts 331°
2026-05-06 14:31 56.06408 5.77904 38018 ft 467 kts 331°
2026-05-06 14:32 56.12330 5.73101 38018 ft 467 kts 331°
2026-05-06 14:32 56.18261 5.68274 38045 ft 467 kts 331°
2026-05-06 14:33 56.24169 5.63450 38023 ft 466 kts 331°
2026-05-06 14:33 56.30063 5.58619 38023 ft 465 kts 331°
2026-05-06 14:34 56.35966 5.53764 38023 ft 465 kts 330°
2026-05-06 14:34 56.41833 5.48922 38023 ft 465 kts 330°
2026-05-06 14:35 56.47729 5.44041 38029 ft 465 kts 330°
2026-05-06 14:35 56.53608 5.39158 38025 ft 465 kts 330°
2026-05-06 14:36 56.59497 5.34248 38025 ft 465 kts 330°
2026-05-06 14:36 56.65382 5.29325 38031 ft 465 kts 330°
2026-05-06 14:37 56.71234 5.24413 38031 ft 465 kts 330°
2026-05-06 14:37 56.77118 5.19457 38038 ft 465 kts 330°
2026-05-06 14:38 56.82996 5.14488 38029 ft 465 kts 330°
2026-05-06 14:38 56.88883 5.09495 38045 ft 465 kts 330°
2026-05-06 14:39 56.94720 5.04528 38047 ft 465 kts 330°
2026-05-06 14:39 57.00523 4.99326 38050 ft 462 kts 325°
2026-05-06 14:40 57.06095 4.93407 38046 ft 462 kts 324°
2026-05-06 14:40 57.11619 4.87367 38046 ft 462 kts 324°
2026-05-06 14:41 57.17135 4.81289 38046 ft 462 kts 324°
2026-05-06 14:41 57.22649 4.75203 38050 ft 462 kts 324°
2026-05-06 14:42 57.28154 4.69115 38055 ft 460 kts 324°
2026-05-06 14:42 57.33610 4.63061 38052 ft 460 kts 324°
2026-05-06 14:43 57.39104 4.56943 38054 ft 460 kts 324°
2026-05-06 14:43 57.44595 4.50806 38056 ft 460 kts 324°
2026-05-06 14:44 57.50086 4.44649 38060 ft 460 kts 324°
2026-05-06 14:45 57.58263 4.35438 38083 ft 460 kts 323°
2026-05-06 14:45 57.63748 4.29232 38061 ft 460 kts 323°
2026-05-06 14:46 57.69226 4.23011 38074 ft 460 kts 323°
2026-05-06 14:46 57.74671 4.16806 38063 ft 460 kts 324°
2026-05-06 14:47 57.80140 4.10552 38062 ft 460 kts 323°
2026-05-06 14:47 57.85608 4.04276 38062 ft 460 kts 323°
2026-05-06 14:48 57.91073 3.97981 38063 ft 460 kts 323°
2026-05-06 14:48 57.96493 3.91715 38060 ft 460 kts 323°
2026-05-06 14:49 58.01946 3.85388 38063 ft 460 kts 323°
2026-05-06 14:49 58.07398 3.79039 38063 ft 460 kts 323°
2026-05-06 14:50 58.12859 3.72657 38061 ft 460 kts 323°
2026-05-06 14:50 58.18275 3.66305 38064 ft 459 kts 323°
2026-05-06 14:51 58.23703 3.59916 38064 ft 457 kts 323°
2026-05-06 14:51 58.29071 3.53574 38069 ft 457 kts 323°
2026-05-06 14:52 58.34478 3.47161 38066 ft 457 kts 323°
2026-05-06 14:52 58.38967 3.41819 38070 ft 457 kts 323°
2026-05-06 14:53 58.44361 3.35380 38092 ft 457 kts 323°
2026-05-06 14:53 58.49752 3.28921 38066 ft 456 kts 323°
2026-05-06 14:54 58.55092 3.22500 38068 ft 456 kts 323°
2026-05-06 14:54 58.60463 3.16017 38067 ft 456 kts 323°
2026-05-06 14:55 58.65831 3.09513 38063 ft 455 kts 323°
2026-05-06 14:55 58.71188 3.03001 38069 ft 455 kts 323°
2026-05-06 14:56 58.76538 2.96471 38062 ft 455 kts 323°
2026-05-06 14:56 58.81876 2.89932 38063 ft 455 kts 323°
2026-05-06 14:57 58.87183 2.83408 38073 ft 455 kts 323°
2026-05-06 14:57 58.92534 2.76804 38069 ft 454 kts 323°
2026-05-06 14:58 58.97864 2.70203 38062 ft 454 kts 323°
2026-05-06 14:58 59.03188 2.63584 38069 ft 454 kts 323°
2026-05-06 14:59 59.08477 2.56984 38069 ft 454 kts 323°
2026-05-06 14:59 59.13795 2.50323 38065 ft 453 kts 323°
2026-05-06 15:00 59.19092 2.43664 38059 ft 453 kts 323°
2026-05-06 15:00 59.24385 2.36985 38071 ft 453 kts 323°
2026-05-06 15:01 59.29680 2.30277 38058 ft 453 kts 323°
2026-05-06 15:01 59.34949 2.23576 38062 ft 455 kts 322°
2026-05-06 15:02 59.40269 2.16783 38061 ft 457 kts 322°
2026-05-06 15:02 59.45589 2.09969 38061 ft 457 kts 322°
2026-05-06 15:03 59.50922 2.03113 38059 ft 457 kts 322°
2026-05-06 15:03 59.56242 1.96245 38059 ft 456 kts 322°
2026-05-06 15:04 59.61517 1.89410 38055 ft 455 kts 322°
2026-05-06 15:04 59.66815 1.82518 38059 ft 455 kts 322°
2026-05-06 15:05 59.72079 1.75643 38054 ft 455 kts 322°
2026-05-06 15:05 59.77369 1.68709 38050 ft 455 kts 322°
2026-05-06 15:06 59.82653 1.61756 38054 ft 455 kts 322°
2026-05-06 15:06 59.87934 1.54778 38089 ft 455 kts 322°
2026-05-06 15:07 59.93199 1.47797 38052 ft 454 kts 322°
2026-05-06 15:07 59.98425 1.40839 38047 ft 454 kts 322°
2026-05-06 15:08 60.03676 1.33822 38048 ft 454 kts 322°
2026-05-06 15:08 60.08920 1.26785 38042 ft 452 kts 322°
2026-05-06 15:09 60.14151 1.19741 38042 ft 452 kts 322°
2026-05-06 15:09 60.19364 1.12690 38039 ft 452 kts 322°
2026-05-06 15:10 60.24566 1.05628 38031 ft 453 kts 322°
2026-05-06 15:10 60.29796 0.98501 38033 ft 453 kts 322°
2026-05-06 15:11 60.35020 0.91354 38033 ft 453 kts 322°
2026-05-06 15:11 60.40239 0.84186 38028 ft 453 kts 322°
2026-05-06 15:12 60.45447 0.77004 38025 ft 453 kts 322°
2026-05-06 15:12 60.50631 0.69826 38026 ft 453 kts 322°
2026-05-06 15:13 60.55845 0.62579 38023 ft 454 kts 322°
2026-05-06 15:13 60.61057 0.55307 38022 ft 454 kts 322°
2026-05-06 15:14 60.66253 0.48028 38019 ft 454 kts 322°
2026-05-06 15:14 60.71450 0.40719 38020 ft 452 kts 322°
2026-05-06 15:15 60.76579 0.33478 38016 ft 448 kts 322°
2026-05-06 15:15 60.81705 0.26208 38015 ft 449 kts 322°
2026-05-06 15:16 60.86847 0.18886 38004 ft 449 kts 322°
2026-05-06 15:16 60.91973 0.11560 38005 ft 449 kts 322°
2026-05-06 15:17 60.97100 0.04204 38009 ft 449 kts 322°
2026-05-06 15:17 61.01888 -0.03867 38002 ft 445 kts 314°
2026-05-06 15:18 61.06373 -0.12722 38014 ft 446 kts 313°
2026-05-06 15:18 61.10788 -0.21686 38004 ft 447 kts 313°
2026-05-06 15:19 61.15213 -0.30721 38006 ft 447 kts 313°
2026-05-06 15:19 61.19640 -0.39773 38004 ft 447 kts 313°
2026-05-06 15:20 61.24064 -0.48841 38000 ft 447 kts 313°
2026-05-06 15:20 61.28480 -0.57930 38001 ft 447 kts 313°
2026-05-06 15:21 61.32890 -0.67043 38004 ft 447 kts 313°
2026-05-06 15:21 61.37302 -0.76204 37998 ft 447 kts 313°
2026-05-06 15:22 61.41684 -0.85337 38002 ft 447 kts 313°
2026-05-06 15:22 61.46093 -0.94568 37998 ft 447 kts 312°
2026-05-06 15:23 61.50463 -1.03754 37998 ft 447 kts 312°
2026-05-06 15:23 61.54850 -1.13015 37998 ft 447 kts 312°
2026-05-06 15:24 61.59225 -1.22291 37998 ft 447 kts 312°
2026-05-06 15:24 61.63603 -1.31612 37998 ft 447 kts 312°
2026-05-06 15:25 61.67971 -1.40952 37998 ft 447 kts 312°
2026-05-06 15:25 61.72304 -1.50259 37997 ft 447 kts 312°
2026-05-06 15:26 61.76651 -1.59633 38001 ft 446 kts 312°
2026-05-06 15:26 61.80985 -1.69021 38001 ft 446 kts 312°
2026-05-06 15:27 61.85317 -1.78445 38005 ft 446 kts 312°
2026-05-06 15:27 61.89647 -1.87904 38007 ft 446 kts 312°
2026-05-06 15:28 61.93964 -1.97378 37994 ft 446 kts 312°
2026-05-06 15:28 61.98282 -2.06895 37993 ft 447 kts 311°
2026-05-06 15:29 62.02564 -2.16371 38006 ft 447 kts 311°
2026-05-06 15:29 62.06860 -2.25920 38003 ft 446 kts 311°
2026-05-06 15:30 62.11152 -2.35503 38009 ft 445 kts 311°
2026-05-06 15:30 62.15404 -2.45039 38011 ft 445 kts 311°
2026-05-06 15:31 62.19679 -2.54668 38010 ft 445 kts 311°
2026-05-06 15:31 62.23947 -2.64325 38012 ft 446 kts 311°
2026-05-06 15:32 62.30332 -2.78848 38010 ft 446 kts 311°
2026-05-06 15:32 62.34585 -2.88576 38010 ft 446 kts 311°
2026-05-06 15:33 62.38839 -2.98349 38012 ft 446 kts 311°
2026-05-06 15:33 62.43053 -3.08075 38013 ft 446 kts 311°
2026-05-06 15:34 62.47284 -3.17881 38012 ft 446 kts 311°
2026-05-06 15:34 62.51508 -3.27717 38023 ft 446 kts 311°
2026-05-06 15:35 62.55730 -3.37593 38017 ft 447 kts 311°
2026-05-06 15:35 62.59965 -3.47543 38017 ft 447 kts 311°
2026-05-06 15:36 62.64158 -3.57436 38023 ft 447 kts 311°
2026-05-06 15:36 62.68369 -3.67420 38023 ft 447 kts 311°
2026-05-06 15:37 62.72577 -3.77441 38022 ft 447 kts 310°
2026-05-06 15:37 62.76751 -3.87425 38028 ft 447 kts 310°
2026-05-06 15:38 62.80939 -3.97492 38031 ft 448 kts 310°
2026-05-06 15:38 62.85131 -4.07611 38032 ft 448 kts 310°
2026-05-06 15:39 62.89318 -4.17765 38032 ft 448 kts 310°
2026-05-06 15:39 62.93471 -4.27884 38038 ft 448 kts 310°
2026-05-06 15:40 62.97636 -4.38077 38040 ft 448 kts 310°
2026-05-06 15:40 63.01805 -4.48328 38040 ft 448 kts 310°
2026-05-06 15:41 63.05258 -4.56857 38041 ft 449 kts 310°
2026-05-06 15:41 63.10085 -4.68831 38038 ft 449 kts 310°
2026-05-06 15:42 63.14230 -4.79167 38049 ft 449 kts 310°
2026-05-06 15:42 63.17679 -4.87802 38046 ft 450 kts 310°
2026-05-06 15:43 63.21817 -4.98209 38056 ft 449 kts 310°
2026-05-06 15:43 63.25954 -5.08663 38057 ft 449 kts 310°
2026-05-06 15:44 63.30051 -5.19065 38060 ft 449 kts 310°
2026-05-06 15:44 63.34167 -5.29563 38076 ft 449 kts 310°
2026-05-06 15:45 63.38275 -5.40091 38058 ft 450 kts 310°
2026-05-06 15:45 63.42380 -5.50661 38064 ft 450 kts 310°
2026-05-06 15:46 63.46447 -5.61184 38064 ft 450 kts 310°
2026-05-06 15:46 63.50532 -5.71805 38067 ft 450 kts 310°
2026-05-06 15:47 63.54615 -5.82469 38067 ft 450 kts 309°
2026-05-06 15:47 63.58689 -5.93163 38072 ft 450 kts 309°
2026-05-06 15:48 63.62753 -6.03880 38082 ft 450 kts 309°
2026-05-06 15:48 63.66825 -6.14673 38075 ft 451 kts 309°
2026-05-06 15:49 63.70854 -6.25403 38079 ft 451 kts 309°
2026-05-06 15:49 63.74906 -6.36244 38083 ft 451 kts 309°
2026-05-06 15:50 63.78944 -6.47103 38086 ft 451 kts 309°
2026-05-06 15:50 63.82977 -6.58002 38089 ft 451 kts 309°
2026-05-06 15:51 63.86978 -6.68865 38091 ft 451 kts 309°
2026-05-06 15:51 63.90993 -6.79823 38093 ft 451 kts 309°
2026-05-06 15:52 63.95002 -6.90816 38104 ft 452 kts 309°
2026-05-06 15:52 63.99006 -7.01850 38102 ft 451 kts 309°
2026-05-06 15:53 64.02987 -7.12877 38098 ft 449 kts 309°
2026-05-06 15:53 64.06957 -7.23931 38101 ft 451 kts 309°
2026-05-06 15:54 64.10911 -7.34989 38108 ft 450 kts 308°
2026-05-06 15:54 64.14872 -7.46128 38108 ft 452 kts 308°
2026-05-06 15:55 64.18837 -7.57329 38111 ft 452 kts 309°
2026-05-06 15:55 64.22798 -7.68571 38115 ft 451 kts 308°
2026-05-06 15:56 64.26732 -7.79800 38113 ft 452 kts 308°
2026-05-06 15:56 64.30641 -7.91009 38116 ft 451 kts 308°
2026-05-06 15:57 64.34566 -8.02327 38115 ft 451 kts 308°
2026-05-06 15:57 64.38466 -8.13631 38125 ft 451 kts 308°
2026-05-06 15:58 64.42375 -8.25013 38125 ft 451 kts 308°
2026-05-06 15:58 64.46273 -8.36421 38122 ft 451 kts 308°
2026-05-06 15:59 64.50145 -8.47817 38127 ft 453 kts 308°
2026-05-06 15:59 64.54041 -8.59335 38128 ft 453 kts 308°
2026-05-06 16:00 64.57917 -8.70857 38129 ft 450 kts 308°
2026-05-06 16:00 64.61768 -8.82369 38132 ft 451 kts 308°
2026-05-06 16:01 64.65616 -8.93922 38129 ft 449 kts 307°
2026-05-06 16:01 64.69420 -9.05405 38130 ft 450 kts 307°
2026-05-06 16:02 64.73256 -9.17050 38139 ft 451 kts 307°
2026-05-06 16:02 64.77091 -9.28749 38140 ft 452 kts 307°
2026-05-06 16:03 64.80881 -9.40374 38140 ft 451 kts 307°
2026-05-06 16:03 64.84696 -9.52132 38147 ft 452 kts 307°
2026-05-06 16:04 64.88508 -9.63944 38149 ft 453 kts 307°
2026-05-06 16:04 64.92316 -9.75805 38152 ft 452 kts 307°
2026-05-06 16:05 64.96066 -9.87553 38143 ft 452 kts 307°
2026-05-06 16:05 64.99846 -9.99454 38158 ft 453 kts 307°
2026-05-06 16:06 65.03582 -10.11390 38156 ft 451 kts 306°
2026-05-06 16:06 65.07269 -10.23392 38156 ft 450 kts 306°
2026-05-06 16:07 65.10958 -10.35457 38165 ft 453 kts 306°
2026-05-06 16:07 65.14661 -10.47602 38168 ft 454 kts 306°
2026-05-06 16:08 65.18362 -10.59794 38169 ft 452 kts 306°
2026-05-06 16:08 65.22013 -10.71885 38174 ft 454 kts 306°
2026-05-06 16:09 65.25703 -10.84176 38164 ft 455 kts 306°
2026-05-06 16:09 65.29380 -10.96493 38175 ft 454 kts 306°
2026-05-06 16:10 65.33035 -11.08799 38182 ft 454 kts 306°
2026-05-06 16:10 65.36669 -11.21106 38184 ft 450 kts 306°
2026-05-06 16:11 65.40305 -11.33476 38189 ft 454 kts 306°
2026-05-06 16:11 65.43925 -11.45879 38196 ft 451 kts 306°
2026-05-06 16:12 65.47502 -11.58193 38197 ft 452 kts 306°
2026-05-06 16:12 65.51084 -11.70602 38197 ft 449 kts 306°
2026-05-06 16:13 65.54632 -11.82954 38198 ft 447 kts 306°
2026-05-06 16:13 65.58172 -11.95340 38208 ft 453 kts 305°
2026-05-06 16:14 65.61748 -12.07937 38209 ft 453 kts 305°
2026-05-06 16:14 65.65297 -12.20506 38216 ft 451 kts 305°
2026-05-06 16:15 65.68836 -12.33109 38218 ft 452 kts 305°
2026-05-06 16:15 65.72361 -12.45726 38221 ft 455 kts 304°
2026-05-06 16:16 65.75921 -12.58548 38230 ft 457 kts 304°
2026-05-06 16:16 65.79461 -12.71378 38241 ft 456 kts 305°
2026-05-06 16:17 65.82960 -12.84132 38240 ft 453 kts 305°
2026-05-06 16:17 65.86440 -12.96894 38235 ft 451 kts 304°
2026-05-06 16:18 65.89927 -13.09731 38249 ft 454 kts 304°
2026-05-06 16:18 65.93421 -13.22683 38249 ft 455 kts 304°
2026-05-06 16:19 65.96883 -13.35608 38249 ft 451 kts 304°
2026-05-06 16:19 66.00307 -13.48444 38251 ft 449 kts 305°
2026-05-06 16:20 66.03707 -13.61262 38261 ft 451 kts 304°
2026-05-06 16:20 66.07134 -13.74266 38263 ft 454 kts 304°
2026-05-06 16:21 66.10551 -13.87319 38257 ft 452 kts 304°
2026-05-06 16:21 66.13962 -14.00405 38263 ft 455 kts 304°
2026-05-06 16:22 66.17387 -14.13633 38269 ft 456 kts 304°
2026-05-06 16:22 66.20774 -14.26800 38266 ft 454 kts 303°
2026-05-06 16:23 66.24160 -14.40044 38279 ft 454 kts 304°
2026-05-06 16:23 66.27533 -14.53307 38279 ft 455 kts 303°
2026-05-06 16:24 66.30882 -14.66555 38278 ft 455 kts 303°
2026-05-06 16:24 66.34242 -14.79932 38282 ft 455 kts 303°
2026-05-06 16:25 66.37590 -14.93344 38289 ft 455 kts 303°
2026-05-06 16:25 66.40922 -15.06771 38279 ft 455 kts 303°
2026-05-06 16:26 66.44233 -15.20196 38288 ft 456 kts 303°
2026-05-06 16:26 66.47558 -15.33762 38313 ft 456 kts 303°
2026-05-06 16:27 66.50860 -15.47316 38291 ft 455 kts 303°
2026-05-06 16:27 66.54147 -15.60895 38316 ft 455 kts 303°
2026-05-06 16:28 66.57414 -15.74473 38302 ft 455 kts 302°
2026-05-06 16:28 66.60149 -15.85906 38302 ft 456 kts 302°
2026-05-06 16:29 66.63388 -15.99527 38306 ft 456 kts 302°
2026-05-06 16:29 66.66640 -16.13286 38305 ft 456 kts 302°
2026-05-06 16:30 66.69326 -16.24715 38319 ft 456 kts 302°
2026-05-06 16:30 66.73073 -16.40765 38322 ft 455 kts 302°
2026-05-06 16:31 66.76279 -16.54588 38317 ft 455 kts 302°
2026-05-06 16:31 66.79470 -16.68443 38335 ft 454 kts 302°
2026-05-06 16:32 66.82642 -16.82293 38332 ft 453 kts 302°
2026-05-06 16:32 66.85778 -16.96078 38329 ft 453 kts 302°
2026-05-06 16:33 66.88922 -17.09990 38338 ft 453 kts 302°
2026-05-06 16:34 66.93615 -17.30919 38317 ft 453 kts 302°
2026-05-06 16:34 66.96731 -17.44928 38336 ft 453 kts 301°
2026-05-06 16:35 66.99813 -17.58879 38347 ft 453 kts 301°
2026-05-06 16:35 67.02895 -17.72918 38348 ft 453 kts 301°
2026-05-06 16:36 67.05972 -17.87026 38348 ft 453 kts 301°
2026-05-06 16:36 67.09016 -18.01077 38349 ft 453 kts 301°
2026-05-06 16:37 67.12066 -18.15247 38349 ft 453 kts 301°
2026-05-06 16:37 67.15106 -18.29469 38354 ft 453 kts 301°
2026-05-06 16:38 67.18135 -18.43729 38355 ft 454 kts 301°
2026-05-06 16:38 67.21156 -18.58050 38354 ft 454 kts 300°
2026-05-06 16:39 67.24164 -18.72407 38366 ft 454 kts 300°
2026-05-06 16:39 67.27134 -18.86678 38368 ft 454 kts 300°
2026-05-06 16:40 67.30112 -19.01085 38369 ft 454 kts 300°
2026-05-06 16:40 67.33073 -19.15507 38370 ft 454 kts 300°
2026-05-06 16:41 67.36026 -19.29990 38368 ft 453 kts 300°
2026-05-06 16:41 67.38944 -19.44400 38370 ft 452 kts 300°
2026-05-06 16:42 67.41863 -19.58916 38386 ft 452 kts 300°
2026-05-06 16:42 67.44747 -19.73352 38384 ft 451 kts 300°
2026-05-06 16:43 67.47631 -19.87888 38385 ft 451 kts 300°
2026-05-06 16:43 67.50784 -20.02018 38397 ft 448 kts 309°
2026-05-06 16:44 67.54623 -20.14932 38397 ft 449 kts 310°
2026-05-06 16:44 67.58532 -20.27578 38394 ft 450 kts 310°
2026-05-06 16:45 67.62492 -20.40386 38400 ft 451 kts 310°
2026-05-06 16:45 67.66400 -20.53143 38408 ft 450 kts 310°
2026-05-06 16:46 67.70316 -20.66040 38416 ft 450 kts 310°
2026-05-06 16:46 67.74216 -20.78971 38414 ft 450 kts 310°
2026-05-06 16:47 67.78088 -20.91880 38408 ft 450 kts 310°
2026-05-06 16:47 67.81979 -21.04930 38421 ft 452 kts 310°
2026-05-06 16:48 67.85858 -21.18018 38414 ft 451 kts 310°
2026-05-06 16:48 67.89708 -21.31084 38427 ft 451 kts 310°
2026-05-06 16:49 67.93569 -21.44270 38431 ft 451 kts 309°
2026-05-06 16:49 67.97420 -21.57499 38429 ft 451 kts 309°
2026-05-06 16:50 68.01233 -21.70679 38434 ft 451 kts 309°
2026-05-06 16:50 68.05062 -21.83996 38437 ft 451 kts 309°
2026-05-06 16:51 68.08882 -21.97362 38439 ft 451 kts 309°
2026-05-06 16:51 68.12685 -22.10749 38437 ft 452 kts 309°
2026-05-06 16:52 68.16459 -22.24120 38440 ft 452 kts 309°
2026-05-06 16:52 68.20248 -22.37622 38446 ft 452 kts 309°
2026-05-06 16:53 68.24018 -22.51143 38439 ft 452 kts 309°
2026-05-06 16:53 68.27784 -22.64733 38422 ft 452 kts 309°
2026-05-06 16:54 68.31539 -22.78372 38431 ft 451 kts 309°
2026-05-06 16:54 68.35249 -22.91929 38443 ft 450 kts 308°
2026-05-06 16:55 68.38971 -23.05613 38450 ft 450 kts 308°
2026-05-06 16:55 68.42680 -23.19338 38450 ft 450 kts 308°
2026-05-06 16:56 68.46378 -23.33109 38445 ft 450 kts 308°
2026-05-06 16:56 68.50044 -23.46846 38447 ft 450 kts 308°
2026-05-06 16:57 68.53721 -23.60713 38452 ft 450 kts 308°
2026-05-06 16:57 68.57390 -23.74636 38444 ft 451 kts 308°
2026-05-06 16:58 68.61019 -23.88499 38444 ft 451 kts 308°
2026-05-06 16:58 68.64661 -24.02500 38440 ft 451 kts 308°
2026-05-06 16:59 68.68297 -24.16567 38441 ft 451 kts 307°
2026-05-06 16:59 68.71895 -24.30580 38437 ft 450 kts 308°
2026-05-06 17:00 68.75493 -24.44685 38444 ft 449 kts 307°
2026-05-06 17:00 68.79077 -24.58822 38446 ft 448 kts 307°
2026-05-06 17:01 68.82642 -24.72975 38435 ft 448 kts 307°
2026-05-06 17:01 68.86195 -24.87177 38445 ft 449 kts 307°
2026-05-06 17:02 68.89739 -25.01431 38442 ft 449 kts 307°
2026-05-06 17:02 68.93272 -25.15740 38430 ft 449 kts 307°
2026-05-06 17:03 68.96780 -25.30040 38441 ft 449 kts 307°
2026-05-06 17:03 69.00292 -25.44453 38429 ft 449 kts 307°
2026-05-06 17:04 69.03768 -25.58810 38436 ft 449 kts 307°
2026-05-06 17:04 69.07256 -25.73312 38434 ft 449 kts 307°
2026-05-06 17:05 69.10729 -25.87853 38443 ft 449 kts 306°
2026-05-06 17:05 69.14188 -26.02433 38437 ft 448 kts 306°
2026-05-06 17:06 69.17626 -26.17020 38436 ft 447 kts 306°
2026-05-06 17:06 69.21056 -26.31671 38449 ft 448 kts 306°
2026-05-06 17:07 69.24450 -26.46267 38445 ft 448 kts 306°
2026-05-06 17:07 69.27856 -26.61018 38453 ft 448 kts 306°
2026-05-06 17:08 69.31248 -26.75807 38457 ft 448 kts 306°
2026-05-06 17:08 69.34606 -26.90550 38456 ft 448 kts 306°
2026-05-06 17:09 69.37986 -27.05487 38447 ft 448 kts 306°
2026-05-06 17:09 69.41318 -27.20319 38446 ft 448 kts 305°
2026-05-06 17:10 69.44664 -27.35314 38447 ft 448 kts 305°
2026-05-06 17:10 69.47995 -27.50346 38451 ft 448 kts 305°
2026-05-06 17:11 69.51286 -27.65304 38410 ft 448 kts 305°
2026-05-06 17:11 69.54588 -27.80418 38444 ft 447 kts 305°
2026-05-06 17:12 69.57869 -27.95540 38444 ft 447 kts 305°
2026-05-06 17:12 69.61117 -28.10615 38451 ft 447 kts 305°
2026-05-06 17:13 69.64371 -28.25830 38453 ft 447 kts 304°
2026-05-06 17:13 69.67608 -28.41070 38445 ft 446 kts 304°
2026-05-06 17:14 69.70837 -28.56382 38452 ft 446 kts 304°
2026-05-06 17:14 69.74027 -28.71616 38453 ft 446 kts 304°
2026-05-06 17:15 69.77226 -28.87001 38448 ft 446 kts 304°
2026-05-06 17:15 69.80410 -29.02430 38455 ft 446 kts 304°
2026-05-06 17:16 69.83579 -29.17897 38472 ft 446 kts 304°
2026-05-06 17:16 69.86716 -29.33318 38486 ft 446 kts 304°
2026-05-06 17:17 69.89857 -29.48872 38490 ft 446 kts 303°
2026-05-06 17:17 69.92454 -29.61824 38487 ft 445 kts 303°
2026-05-06 17:18 69.95560 -29.77414 38502 ft 445 kts 303°
2026-05-06 17:18 69.98658 -29.93073 38527 ft 445 kts 303°
2026-05-06 17:19 70.02060 -30.08095 38525 ft 442 kts 308°
2026-05-06 17:19 70.05637 -30.22633 38531 ft 442 kts 309°
2026-05-06 17:20 70.09260 -30.37253 38525 ft 442 kts 309°
2026-05-06 17:20 70.12858 -30.51864 38502 ft 442 kts 309°
2026-05-06 17:21 70.16445 -30.66567 38508 ft 442 kts 309°
2026-05-06 17:21 70.20014 -30.81306 38482 ft 442 kts 308°
2026-05-06 17:22 70.23552 -30.96020 38475 ft 442 kts 308°
2026-05-06 17:22 70.27100 -31.10879 38481 ft 442 kts 308°
2026-05-06 17:23 70.30638 -31.25797 38499 ft 442 kts 308°
2026-05-06 17:23 70.34143 -31.40682 38498 ft 442 kts 308°
2026-05-06 17:24 70.37652 -31.55684 38514 ft 442 kts 308°
2026-05-06 17:24 70.41151 -31.70749 38506 ft 441 kts 308°
2026-05-06 17:25 70.44625 -31.85811 38508 ft 440 kts 308°
2026-05-06 17:25 70.48061 -32.00814 38515 ft 440 kts 307°
2026-05-06 17:26 70.51504 -32.15951 38512 ft 440 kts 307°
2026-05-06 17:26 70.54932 -32.31135 38521 ft 438 kts 307°
2026-05-06 17:27 70.58339 -32.46326 38519 ft 438 kts 307°
2026-05-06 17:27 70.61729 -32.61548 38527 ft 438 kts 307°
2026-05-06 17:28 70.65092 -32.76762 38528 ft 438 kts 307°
2026-05-06 17:28 70.68457 -32.92091 38511 ft 438 kts 307°
2026-05-06 17:29 70.71820 -33.07520 38519 ft 438 kts 306°
2026-05-06 17:29 70.75160 -33.22957 38518 ft 438 kts 306°
2026-05-06 17:30 70.78483 -33.38426 38520 ft 438 kts 306°
2026-05-06 17:30 70.81781 -33.53892 38521 ft 438 kts 306°
2026-05-06 17:31 70.85084 -33.69489 38518 ft 438 kts 306°
2026-05-06 17:31 70.88373 -33.85138 38516 ft 438 kts 306°
2026-05-06 17:32 70.91649 -34.00842 38505 ft 438 kts 306°
2026-05-06 17:32 70.94877 -34.16432 38520 ft 435 kts 306°
2026-05-06 17:33 70.98100 -34.32108 38516 ft 434 kts 305°
2026-05-06 17:33 71.01312 -34.47844 38520 ft 434 kts 305°
2026-05-06 17:34 71.04509 -34.63625 38518 ft 434 kts 305°
2026-05-06 17:34 71.07696 -34.79473 38520 ft 435 kts 305°
2026-05-06 17:35 71.10846 -34.95253 38522 ft 435 kts 305°
2026-05-06 17:35 71.14002 -35.11185 38515 ft 434 kts 304°
2026-05-06 17:36 71.18714 -35.35199 38514 ft 434 kts 304°
2026-05-06 17:36 71.21834 -35.51248 38511 ft 434 kts 304°
2026-05-06 17:37 71.24924 -35.67265 38511 ft 434 kts 304°
2026-05-06 17:37 71.28017 -35.83418 38511 ft 434 kts 304°
2026-05-06 17:38 71.31095 -35.99618 38506 ft 434 kts 304°
2026-05-06 17:38 71.34145 -36.15798 38506 ft 434 kts 303°
2026-05-06 17:39 71.37194 -36.32098 38505 ft 434 kts 303°
2026-05-06 17:39 71.40234 -36.48471 38496 ft 434 kts 303°
2026-05-06 17:40 71.43240 -36.64793 38501 ft 434 kts 303°
2026-05-06 17:40 71.46244 -36.81231 38503 ft 433 kts 303°
2026-05-06 17:41 71.49236 -36.97731 38504 ft 433 kts 303°
2026-05-06 17:41 71.52197 -37.14194 38499 ft 433 kts 303°
2026-05-06 17:42 71.55155 -37.30768 38504 ft 432 kts 302°
2026-05-06 17:42 71.58091 -37.47350 38506 ft 432 kts 302°
2026-05-06 17:43 71.60999 -37.63904 38500 ft 432 kts 302°
2026-05-06 17:43 71.63904 -37.80577 38504 ft 432 kts 302°
2026-05-06 17:44 71.66798 -37.97322 38507 ft 432 kts 302°
2026-05-06 17:44 71.69681 -38.14134 38506 ft 432 kts 302°
2026-05-06 17:45 71.72522 -38.30843 38503 ft 431 kts 302°
2026-05-06 17:45 71.75366 -38.47704 38510 ft 431 kts 301°
2026-05-06 17:46 71.78189 -38.64576 38522 ft 431 kts 301°
2026-05-06 17:46 71.81000 -38.81516 38520 ft 431 kts 301°
2026-05-06 17:47 71.83793 -38.98492 38520 ft 431 kts 301°
2026-05-06 17:47 71.86579 -39.15561 38523 ft 431 kts 301°
2026-05-06 17:48 71.89329 -39.32554 38533 ft 431 kts 301°
2026-05-06 17:48 71.92078 -39.49688 38533 ft 429 kts 300°
2026-05-06 17:49 71.94800 -39.66797 38547 ft 429 kts 300°
2026-05-06 17:49 71.97513 -39.83984 38530 ft 429 kts 300°
2026-05-06 17:50 72.00071 -40.01325 38543 ft 432 kts 294°
2026-05-06 17:50 72.02105 -40.19669 38546 ft 433 kts 292°
2026-05-06 17:51 72.04031 -40.38172 38539 ft 433 kts 292°
2026-05-06 17:51 72.05914 -40.56636 38533 ft 432 kts 292°
2026-05-06 17:52 72.07787 -40.75153 38539 ft 431 kts 292°
2026-05-06 17:52 72.09650 -40.93703 38539 ft 431 kts 292°
2026-05-06 17:53 72.11497 -41.12290 38538 ft 431 kts 291°
2026-05-06 17:53 72.13315 -41.30799 38534 ft 431 kts 291°
2026-05-06 17:54 72.15124 -41.49437 38497 ft 431 kts 291°
2026-05-06 17:54 72.16917 -41.68138 38538 ft 430 kts 291°
2026-05-06 17:55 72.18682 -41.86774 38537 ft 429 kts 291°
2026-05-06 17:55 72.20425 -42.05395 38537 ft 428 kts 291°
2026-05-06 17:56 72.22139 -42.23906 38538 ft 428 kts 291°
2026-05-06 17:56 72.23847 -42.42592 38538 ft 428 kts 290°
2026-05-06 17:57 72.25538 -42.61316 38535 ft 428 kts 290°
2026-05-06 17:57 72.27201 -42.79968 38538 ft 428 kts 290°
2026-05-06 17:58 72.28856 -42.98763 38538 ft 428 kts 290°
2026-05-06 17:58 72.30492 -43.17579 38538 ft 427 kts 290°
2026-05-06 17:59 72.32102 -43.36343 38542 ft 426 kts 290°
2026-05-06 17:59 72.33694 -43.55131 38545 ft 426 kts 289°
2026-05-06 18:00 72.35268 -43.73937 38545 ft 426 kts 289°
2026-05-06 18:00 72.36816 -43.92681 38534 ft 425 kts 289°
2026-05-06 18:01 72.38351 -44.11516 38536 ft 424 kts 289°
2026-05-06 18:01 72.39867 -44.30373 38530 ft 425 kts 289°
2026-05-06 18:02 72.41366 -44.49269 38529 ft 424 kts 289°
2026-05-06 18:02 72.42839 -44.68107 38528 ft 422 kts 288°
2026-05-06 18:03 72.44294 -44.86959 38519 ft 422 kts 288°
2026-05-06 18:03 72.45722 -45.05717 38501 ft 423 kts 288°
2026-05-06 18:04 72.47142 -45.24638 38510 ft 423 kts 288°
2026-05-06 18:04 72.48317 -45.40501 38496 ft 423 kts 288°
2026-05-06 18:05 72.49695 -45.59352 38489 ft 423 kts 288°
2026-05-06 18:05 72.51066 -45.78393 38498 ft 423 kts 287°
2026-05-06 18:06 72.52415 -45.97409 38500 ft 421 kts 287°
2026-05-06 18:06 72.53739 -46.16351 38464 ft 420 kts 287°
2026-05-06 18:07 72.55036 -46.35185 38477 ft 418 kts 287°
2026-05-06 18:07 72.56319 -46.54093 38479 ft 418 kts 287°
2026-05-06 18:08 72.57587 -46.73068 38462 ft 418 kts 287°
2026-05-06 18:08 72.58827 -46.91920 38463 ft 418 kts 286°
2026-05-06 18:09 72.60058 -47.10932 38445 ft 419 kts 286°
2026-05-06 18:09 72.61270 -47.29991 38448 ft 417 kts 286°
2026-05-06 18:10 72.62458 -47.48947 38447 ft 416 kts 285°
2026-05-06 18:10 72.63628 -47.67924 38431 ft 416 kts 285°
2026-05-06 18:11 72.64781 -47.86944 38434 ft 417 kts 285°
2026-05-06 18:11 72.65911 -48.05900 38431 ft 417 kts 285°
2026-05-06 18:12 72.67030 -48.25007 38417 ft 417 kts 285°
2026-05-06 18:12 72.68130 -48.44124 38417 ft 417 kts 285°
2026-05-06 18:13 72.69209 -48.63212 38417 ft 415 kts 284°
2026-05-06 18:13 72.70264 -48.82230 38408 ft 414 kts 284°
2026-05-06 18:14 72.71297 -49.01172 38406 ft 414 kts 284°
2026-05-06 18:14 72.72318 -49.20240 38403 ft 414 kts 284°
2026-05-06 18:15 72.73322 -49.39360 38403 ft 415 kts 284°
2026-05-06 18:15 72.74308 -49.58504 38403 ft 415 kts 284°
2026-05-06 18:16 72.75277 -49.77696 38403 ft 415 kts 284°
2026-05-06 18:16 72.76221 -49.96753 38384 ft 414 kts 283°
2026-05-06 18:17 72.77147 -50.15868 38381 ft 412 kts 283°
2026-05-06 18:17 72.78056 -50.34999 38382 ft 412 kts 283°
2026-05-06 18:18 72.78948 -50.54165 38366 ft 413 kts 283°
2026-05-06 18:18 72.79821 -50.73344 38367 ft 413 kts 282°
2026-05-06 18:19 72.80675 -50.92518 38347 ft 412 kts 282°
2026-05-06 18:19 72.81503 -51.11549 38355 ft 411 kts 282°
2026-05-06 18:20 72.82318 -51.30687 38364 ft 410 kts 282°
2026-05-06 18:20 72.83113 -51.49783 38360 ft 409 kts 281°
2026-05-06 18:21 72.83884 -51.68769 38369 ft 408 kts 281°
2026-05-06 18:21 72.84641 -51.87854 38372 ft 409 kts 281°
2026-05-06 18:22 72.85381 -52.06984 38372 ft 409 kts 281°
2026-05-06 18:22 72.86101 -52.26096 38369 ft 409 kts 281°
2026-05-06 18:23 72.86800 -52.45119 38364 ft 409 kts 281°
2026-05-06 18:23 72.87487 -52.64304 38368 ft 409 kts 280°
2026-05-06 18:24 72.88157 -52.83478 38328 ft 408 kts 279°
2026-05-06 18:24 72.88804 -53.02629 38328 ft 407 kts 279°
2026-05-06 18:25 72.89427 -53.21643 38330 ft 407 kts 279°
2026-05-06 18:25 72.90039 -53.40811 38315 ft 407 kts 279°
2026-05-06 18:26 72.90628 -53.59850 38306 ft 406 kts 279°
2026-05-06 18:26 72.91202 -53.78988 38302 ft 406 kts 279°
2026-05-06 18:27 72.91759 -53.98159 38301 ft 406 kts 278°
2026-05-06 18:27 72.92294 -54.17195 38302 ft 406 kts 278°
2026-05-06 18:28 72.92813 -54.36330 38305 ft 406 kts 278°
2026-05-06 18:28 72.93314 -54.55455 38309 ft 405 kts 278°
2026-05-06 18:29 72.93797 -54.74611 38302 ft 406 kts 277°
2026-05-06 18:29 72.94261 -54.93754 38308 ft 406 kts 277°
2026-05-06 18:30 72.94709 -55.12932 38307 ft 406 kts 277°
2026-05-06 18:30 72.95139 -55.32132 38306 ft 406 kts 277°
2026-05-06 18:31 72.95547 -55.51175 38307 ft 406 kts 277°
2026-05-06 18:31 72.95945 -55.70509 38315 ft 405 kts 276°
2026-05-06 18:32 72.96317 -55.89542 38302 ft 404 kts 276°
2026-05-06 18:32 72.96672 -56.08673 38304 ft 403 kts 276°
2026-05-06 18:33 72.97009 -56.27791 38308 ft 404 kts 276°
2026-05-06 18:33 72.97327 -56.46832 38307 ft 404 kts 275°
2026-05-06 18:34 72.97629 -56.65984 38305 ft 404 kts 275°
2026-05-06 18:34 72.97914 -56.85155 38303 ft 404 kts 275°
2026-05-06 18:35 72.98181 -57.04343 38308 ft 404 kts 275°
2026-05-06 18:35 72.98429 -57.23371 38303 ft 403 kts 274°
2026-05-06 18:36 72.98659 -57.42543 38306 ft 403 kts 274°
2026-05-06 18:36 72.98870 -57.61678 38306 ft 403 kts 274°
2026-05-06 18:37 72.99033 -57.77601 38306 ft 403 kts 274°
2026-05-06 18:37 72.99241 -58.00012 38305 ft 403 kts 274°
2026-05-06 18:38 72.99399 -58.19088 38306 ft 404 kts 274°
2026-05-06 18:38 72.99542 -58.38285 38301 ft 403 kts 273°
2026-05-06 18:39 72.99665 -58.57457 38310 ft 403 kts 272°
2026-05-06 18:40 72.99813 -58.86173 38312 ft 402 kts 272°
2026-05-06 18:40 72.99890 -59.05161 38305 ft 402 kts 272°
2026-05-06 18:41 72.99951 -59.24348 38308 ft 402 kts 272°
2026-05-06 18:41 72.99993 -59.43467 38308 ft 402 kts 272°
2026-05-06 18:42 73.00017 -59.62485 38310 ft 402 kts 271°
2026-05-06 18:42 73.00024 -59.81635 38302 ft 402 kts 271°
2026-05-06 18:43 73.00015 -60.00757 38306 ft 402 kts 271°
2026-05-06 18:43 72.99708 -60.19890 38309 ft 403 kts 266°
2026-05-06 18:44 72.99111 -60.38935 38308 ft 403 kts 265°
2026-05-06 18:44 72.98529 -60.57875 38309 ft 403 kts 266°
2026-05-06 18:45 72.97980 -60.76959 38289 ft 404 kts 265°
2026-05-06 18:45 72.97435 -60.96036 38297 ft 404 kts 265°
2026-05-06 18:46 72.96874 -61.15118 38302 ft 404 kts 265°
2026-05-06 18:46 72.96294 -61.34104 38302 ft 404 kts 265°
2026-05-06 18:47 72.95695 -61.53163 38301 ft 404 kts 264°
2026-05-06 18:47 72.95076 -61.72188 38299 ft 404 kts 264°
2026-05-06 18:48 72.94439 -61.91215 38292 ft 404 kts 264°
2026-05-06 18:48 72.93788 -62.10122 38298 ft 404 kts 264°
2026-05-06 18:49 72.93117 -62.29105 38300 ft 404 kts 264°
2026-05-06 18:49 72.92428 -62.48083 38289 ft 404 kts 264°
2026-05-06 18:50 72.91725 -62.66943 38287 ft 404 kts 264°
2026-05-06 18:50 72.91000 -62.85920 38290 ft 404 kts 263°
2026-05-06 18:51 72.90257 -63.04864 38290 ft 404 kts 263°
2026-05-06 18:51 72.89626 -63.20613 38282 ft 404 kts 263°
2026-05-06 18:52 72.88724 -63.42594 38286 ft 404 kts 263°
2026-05-06 18:52 72.88065 -63.58299 38285 ft 404 kts 263°
2026-05-06 18:53 72.87256 -63.77180 38283 ft 404 kts 263°
2026-05-06 18:53 72.86427 -63.96076 38280 ft 404 kts 263°
2026-05-06 18:54 72.85582 -64.14944 38269 ft 404 kts 262°
2026-05-06 18:54 72.84724 -64.33673 38274 ft 404 kts 262°
2026-05-06 18:55 72.83845 -64.52483 38279 ft 404 kts 262°
2026-05-06 18:55 72.82948 -64.71281 38278 ft 404 kts 262°
2026-05-06 18:56 72.82033 -64.90060 38274 ft 404 kts 261°
2026-05-06 18:56 72.81107 -65.08741 38282 ft 406 kts 261°
2026-05-06 18:57 72.80154 -65.27552 38273 ft 406 kts 261°
2026-05-06 18:57 72.79182 -65.46352 38274 ft 406 kts 261°
2026-05-06 18:58 72.78198 -65.65062 38271 ft 406 kts 261°
2026-05-06 18:58 72.77192 -65.83830 38264 ft 406 kts 260°
2026-05-06 18:59 72.76171 -66.02569 38268 ft 406 kts 260°
2026-05-06 18:59 72.75130 -66.21283 38272 ft 406 kts 259°
2026-05-06 19:00 72.74073 -66.39960 38270 ft 406 kts 259°
2026-05-06 19:00 72.72997 -66.58655 38275 ft 406 kts 259°
2026-05-06 19:01 72.71906 -66.77289 38269 ft 406 kts 259°
2026-05-06 19:01 72.70797 -66.95915 38269 ft 406 kts 259°
2026-05-06 19:02 72.69672 -67.14524 38263 ft 408 kts 258°
2026-05-06 19:02 72.68527 -67.33121 38261 ft 410 kts 258°
2026-05-06 19:03 72.67357 -67.51825 38273 ft 409 kts 258°
2026-05-06 19:03 72.66125 -67.70473 38262 ft 409 kts 254°
2026-05-06 19:04 72.64483 -67.88730 38265 ft 409 kts 253°
2026-05-06 19:04 72.62757 -68.06801 38266 ft 409 kts 252°
2026-05-06 19:05 72.60995 -68.24901 38265 ft 409 kts 252°
2026-05-06 19:05 72.59222 -68.42965 38266 ft 409 kts 252°
2026-05-06 19:06 72.57436 -68.61013 38263 ft 409 kts 252°
2026-05-06 19:06 72.55634 -68.79038 38266 ft 409 kts 252°
2026-05-06 19:07 72.53815 -68.97037 38255 ft 410 kts 251°
2026-05-06 19:07 72.52898 -69.06033 38262 ft 411 kts 251°